This is the latest recevied weather packets stored in our database for station/object EA3FHP. If no packets are shown the sender has not sent any weather packets the latest 10 day(s).
| Time | Temp. | Humidity | Pressure | Rain* | Wind** | Luminosity | Snow |
|---|---|---|---|---|---|---|---|
| 1787463003 | 15.56° C | 89% | 1020 hPa | 0 mm | - | - | - |
| 1787462403 | 15.56° C | 89% | 1019.9 hPa | 0 mm | - | - | - |
| 1787461803 | 15.56° C | 88% | 1019.8 hPa | 0 mm | - | - | - |
| 1787461203 | 15.56° C | 88% | 1019.9 hPa | 0 mm | - | - | - |
| 1787460603 | 15.56° C | 88% | 1019.6 hPa | 0 mm | - | - | - |
| 1787460003 | 15.56° C | 88% | 1019.5 hPa | 0 mm | - | - | - |
| 1787459403 | 15.56° C | 88% | 1019.6 hPa | 0 mm | - | - | - |
| 1787458803 | 15.56° C | 88% | 1019.5 hPa | 0 mm | - | - | - |
| 1787431203 | 20.56° C | 75% | 1019.7 hPa | 0 mm | - | - | - |
| 1787430603 | 20.56° C | 76% | 1019.6 hPa | 0 mm | - | - | - |
| 1787430003 | 21.11° C | 74% | 1019.8 hPa | 0 mm | - | - | - |
| 1787429403 | 21.67° C | 73% | 1019.8 hPa | 0 mm | - | - | - |
| 1787428804 | 21.11° C | 73% | 1019.7 hPa | 0 mm | - | - | - |
| 1787428203 | 21.67° C | 73% | 1019.6 hPa | 0 mm | - | - | - |
| 1787427603 | 22.22° C | 72% | 1019.5 hPa | 0 mm | - | - | - |
| 1787427003 | 22.22° C | 70% | 1019.2 hPa | 0 mm | - | - | - |
| 1787426403 | 22.22° C | 70% | 1019.2 hPa | 0 mm | - | - | - |
| 1787425803 | 22.78° C | 69% | 1019.3 hPa | 0 mm | - | - | - |
| 1787425203 | 23.33° C | 68% | 1018.8 hPa | 0 mm | - | - | - |
| 1787424603 | 23.33° C | 66% | 1018.7 hPa | 0 mm | - | - | - |
| 1787424003 | 23.89° C | 65% | 1018.7 hPa | 0 mm | - | - | - |
| 1787423403 | 24.44° C | 64% | 1018.7 hPa | 0 mm | - | - | - |
| 1787422803 | 24.44° C | 62% | 1018.6 hPa | 0 mm | - | - | - |
| 1787422203 | 25° C | 61% | 1018.7 hPa | 0 mm | - | - | - |
| 1787421603 | 25.56° C | 59% | 1018.7 hPa | 0 mm | - | - | - |
* Rain latest hour (hover to see other rain measurements)
** Current wind speed in m/s (hover to see current wind gust speed)